Time,TemperatureF,DewpointF,PressureIn,WindDirection,WindDirectionDegrees,WindSpeedMPH,WindSpeedGustMPH,Humidity,HourlyPrecipIn,Conditions,Clouds,dailyrainin,SoftwareType,DateUTC
2013-02-03 00:05:00,67.9,58.1,30.10,East,91,2.0,4.0,71,0.00,,,0.00,Wunderground v.1.15,2013-02-03 10:05:00,
2013-02-03 00:15:00,67.8,58.4,30.10,East,96,2.0,2.0,72,0.00,,,0.00,Wunderground v.1.15,2013-02-03 10:15:00,
2013-02-03 00:25:00,67.8,58.8,30.10,East,93,2.0,3.0,73,0.00,,,0.00,Wunderground v.1.15,2013-02-03 10:25:00,
2013-02-03 00:35:00,67.8,59.2,30.10,ESE,103,2.0,3.0,74,0.00,,,0.00,Wunderground v.1.15,2013-02-03 10:35:00,
2013-02-03 00:40:00,67.9,58.9,30.10,East,90,2.0,2.0,73,0.00,,,0.00,Wunderground v.1.15,2013-02-03 10:40:00,
2013-02-03 00:50:00,68.0,58.6,30.10,ENE,72,2.0,2.0,72,0.00,,,0.00,Wunderground v.1.15,2013-02-03 10:50:00,
2013-02-03 01:00:00,68.0,59.0,30.10,ENE,65,1.0,1.0,73,0.00,,,0.00,Wunderground v.1.15,2013-02-03 11:00:00,
2013-02-03 01:05:00,67.9,58.9,30.10,ENE,65,1.0,1.0,73,0.00,,,0.00,Wunderground v.1.15,2013-02-03 11:05:00,
2013-02-03 01:15:00,67.5,58.9,30.09,ENE,65,1.0,1.0,74,0.00,,,0.00,Wunderground v.1.15,2013-02-03 11:15:00,
2013-02-03 01:25:00,67.2,59.0,30.09,ENE,66,1.0,3.0,75,0.00,,,0.00,Wunderground v.1.15,2013-02-03 11:25:00,
2013-02-03 01:30:00,67.2,59.0,30.09,ESE,109,2.0,2.0,75,0.00,,,0.00,Wunderground v.1.15,2013-02-03 11:30:00,
2013-02-03 01:40:00,67.7,58.7,30.08,East,101,4.0,4.0,73,0.00,,,0.00,Wunderground v.1.15,2013-02-03 11:40:00,
2013-02-03 01:50:00,67.7,58.7,30.08,ESE,110,5.0,6.0,73,0.00,,,0.00,Wunderground v.1.15,2013-02-03 11:50:00,
2013-02-03 02:00:00,67.8,58.8,30.08,ESE,118,5.0,10.0,73,0.00,,,0.00,Wunderground v.1.15,2013-02-03 12:00:00,
2013-02-03 02:05:00,68.0,58.6,30.08,SE,133,6.0,10.0,72,0.00,,,0.00,Wunderground v.1.15,2013-02-03 12:05:00,
2013-02-03 02:15:00,68.1,58.7,30.08,ESE,111,5.0,6.0,72,0.00,,,0.00,Wunderground v.1.15,2013-02-03 12:15:00,
2013-02-03 02:25:00,68.3,58.9,30.08,ESE,111,5.0,6.0,72,0.00,,,0.00,Wunderground v.1.15,2013-02-03 12:25:00,
2013-02-03 02:30:00,68.2,58.8,30.08,East,99,3.0,3.0,72,0.00,,,0.00,Wunderground v.1.15,2013-02-03 12:30:00,
2013-02-03 02:40:00,68.2,59.2,30.08,ESE,109,3.0,4.0,73,0.00,,,0.00,Wunderground v.1.15,2013-02-03 12:40:00,
2013-02-03 02:50:00,68.3,58.9,30.07,ESE,107,4.0,4.0,72,0.00,,,0.00,Wunderground v.1.15,2013-02-03 12:50:00,
2013-02-03 03:00:00,68.3,59.3,30.08,ESE,106,3.0,4.0,73,0.00,,,0.00,Wunderground v.1.15,2013-02-03 13:00:00,
2013-02-03 03:05:00,68.2,59.2,30.07,East,91,3.0,4.0,73,0.00,,,0.00,Wunderground v.1.15,2013-02-03 13:05:00,
2013-02-03 03:15:00,67.9,59.3,30.08,ENE,67,3.0,9.0,74,0.00,,,0.00,Wunderground v.1.15,2013-02-03 13:15:00,
2013-02-03 03:25:00,67.8,58.8,30.08,East,96,4.0,4.0,73,0.00,,,0.00,Wunderground v.1.15,2013-02-03 13:25:00,
2013-02-03 03:35:00,67.7,58.7,30.08,ESE,103,3.0,6.0,73,0.00,,,0.00,Wunderground v.1.15,2013-02-03 13:35:00,
2013-02-03 03:45:00,67.6,58.6,30.08,East,82,4.0,6.0,73,0.00,,,0.00,Wunderground v.1.15,2013-02-03 13:45:00,
2013-02-03 03:55:00,67.8,58.8,30.08,East,79,4.0,5.0,73,0.00,,,0.00,Wunderground v.1.15,2013-02-03 13:55:00,
2013-02-03 04:05:00,68.0,59.4,30.08,East,92,4.0,9.0,74,0.00,,,0.00,Wunderground v.1.15,2013-02-03 14:05:00,
2013-02-03 04:15:00,68.0,59.0,30.08,East,92,5.0,5.0,73,0.00,,,0.00,Wunderground v.1.15,2013-02-03 14:15:00,
2013-02-03 04:25:00,67.9,58.9,30.08,East,80,4.0,5.0,73,0.00,,,0.00,Wunderground v.1.15,2013-02-03 14:25:00,
2013-02-03 04:35:00,67.6,59.0,30.08,East,96,3.0,4.0,74,0.00,,,0.00,Wunderground v.1.15,2013-02-03 14:35:00,
2013-02-03 04:45:00,67.7,59.1,30.08,ESE,102,4.0,4.0,74,0.00,,,0.00,Wunderground v.1.15,2013-02-03 14:45:00,
2013-02-03 04:55:00,67.9,58.9,30.08,ESE,109,4.0,4.0,73,0.00,,,0.00,Wunderground v.1.15,2013-02-03 14:55:00,
2013-02-03 05:05:00,68.1,59.1,30.09,East,83,3.0,4.0,73,0.00,,,0.00,Wunderground v.1.15,2013-02-03 15:05:00,
2013-02-03 05:15:00,68.2,59.2,30.09,East,88,4.0,9.0,73,0.00,,,0.00,Wunderground v.1.15,2013-02-03 15:15:00,
2013-02-03 05:20:00,68.2,59.2,30.09,ENE,68,5.0,5.0,73,0.00,,,0.00,Wunderground v.1.15,2013-02-03 15:20:00,
2013-02-03 05:30:00,68.2,59.2,30.09,NE,55,4.0,4.0,73,0.00,,,0.00,Wunderground v.1.15,2013-02-03 15:30:00,
2013-02-03 05:40:00,68.3,59.7,30.10,ENE,73,3.0,7.0,74,0.00,,,0.00,Wunderground v.1.15,2013-02-03 15:40:00,
2013-02-03 05:50:00,68.6,58.8,30.10,NE,55,5.0,5.0,71,0.00,,,0.00,Wunderground v.1.15,2013-02-03 15:50:00,
2013-02-03 06:00:00,68.6,58.8,30.10,ENE,69,6.0,6.0,71,0.00,,,0.00,Wunderground v.1.15,2013-02-03 16:00:00,
2013-02-03 06:05:00,68.5,58.7,30.10,East,83,4.0,6.0,71,0.00,,,0.00,Wunderground v.1.15,2013-02-03 16:05:00,
2013-02-03 06:15:00,68.5,59.1,30.11,NE,55,3.0,3.0,72,0.00,,,0.00,Wunderground v.1.15,2013-02-03 16:15:00,
2013-02-03 06:25:00,68.6,59.2,30.12,East,82,3.0,7.0,72,0.00,,,0.00,Wunderground v.1.15,2013-02-03 16:25:00,
2013-02-03 06:35:00,68.7,58.9,30.12,ENE,74,4.0,4.0,71,0.00,,,0.00,Wunderground v.1.15,2013-02-03 16:35:00,
2013-02-03 06:45:00,68.5,58.7,30.12,East,86,3.0,4.0,71,0.00,,,0.00,Wunderground v.1.15,2013-02-03 16:45:00,
2013-02-03 06:55:00,68.6,59.2,30.13,NE,48,3.0,10.0,72,0.00,,,0.00,Wunderground v.1.15,2013-02-03 16:55:00,
2013-02-03 07:00:00,68.9,59.1,30.13,ENE,68,5.0,6.0,71,0.00,,,0.00,Wunderground v.1.15,2013-02-03 17:00:00,
2013-02-03 07:05:00,69.1,59.3,30.13,East,90,6.0,6.0,71,0.00,,,0.00,Wunderground v.1.15,2013-02-03 17:05:00,
2013-02-03 07:15:00,68.9,58.7,30.13,ENE,57,4.0,5.0,70,0.00,,,0.00,Wunderground v.1.15,2013-02-03 17:15:00,
2013-02-03 07:25:00,68.9,58.7,30.14,NE,42,4.0,4.0,70,0.00,,,0.00,Wunderground v.1.15,2013-02-03 17:25:00,
2013-02-03 07:35:00,69.1,59.3,30.14,ESE,112,4.0,7.0,71,0.00,,,0.00,Wunderground v.1.15,2013-02-03 17:35:00,
2013-02-03 07:45:00,69.3,58.7,30.14,ENE,67,5.0,5.0,69,0.00,,,0.00,Wunderground v.1.15,2013-02-03 17:45:00,
2013-02-03 07:50:00,69.3,58.7,30.14,ENE,72,5.0,5.0,69,0.00,,,0.00,Wunderground v.1.15,2013-02-03 17:50:00,
2013-02-03 08:00:00,69.4,59.2,30.15,ENE,77,4.0,4.0,70,0.00,,,0.00,Wunderground v.1.15,2013-02-03 18:00:00,
2013-02-03 08:05:00,69.8,59.6,30.15,East,83,4.0,4.0,70,0.00,,,0.00,Wunderground v.1.15,2013-02-03 18:05:00,
2013-02-03 08:15:00,69.8,58.8,30.15,East,89,3.0,4.0,68,0.00,,,0.00,Wunderground v.1.15,2013-02-03 18:15:00,
2013-02-03 08:25:00,69.8,59.2,30.15,East,90,3.0,5.0,69,0.00,,,0.00,Wunderground v.1.15,2013-02-03 18:25:00,
2013-02-03 08:35:00,71.0,59.9,30.15,East,94,6.0,7.0,68,0.00,,,0.00,Wunderground v.1.15,2013-02-03 18:35:00,
2013-02-03 08:45:00,70.5,58.2,30.15,ENE,72,5.0,5.0,65,0.00,,,0.00,Wunderground v.1.15,2013-02-03 18:45:00,
2013-02-03 08:55:00,70.3,58.8,30.15,ENE,63,5.0,6.0,67,0.00,,,0.00,Wunderground v.1.15,2013-02-03 18:55:00,
2013-02-03 09:05:00,70.5,59.0,30.15,ENE,78,4.0,4.0,67,0.00,,,0.00,Wunderground v.1.15,2013-02-03 19:05:00,
2013-02-03 09:15:00,71.4,58.6,30.16,ENE,64,5.0,6.0,64,0.00,,,0.00,Wunderground v.1.15,2013-02-03 19:15:00,
2013-02-03 09:25:00,72.6,59.7,30.16,ENE,61,5.0,6.0,64,0.00,,,0.00,Wunderground v.1.15,2013-02-03 19:25:00,
2013-02-03 09:35:00,72.4,59.5,30.16,East,86,5.0,5.0,64,0.00,,,0.00,Wunderground v.1.15,2013-02-03 19:35:00,
2013-02-03 09:45:00,71.9,59.5,30.16,ESE,107,6.0,12.0,65,0.00,,,0.00,Wunderground v.1.15,2013-02-03 19:45:00,
2013-02-03 09:55:00,72.9,59.6,30.15,East,98,5.0,6.0,63,0.00,,,0.00,Wunderground v.1.15,2013-02-03 19:55:00,
2013-02-03 10:05:00,73.0,58.8,30.16,East,84,6.0,6.0,61,0.00,,,0.00,Wunderground v.1.15,2013-02-03 20:05:00,
2013-02-03 10:15:00,73.4,59.6,30.15,NE,49,5.0,8.0,62,0.00,,,0.00,Wunderground v.1.15,2013-02-03 20:15:00,
2013-02-03 10:25:00,73.1,58.8,30.15,East,90,6.0,9.0,61,0.00,,,0.00,Wunderground v.1.15,2013-02-03 20:25:00,
2013-02-03 10:35:00,73.7,58.9,30.15,NE,48,6.0,10.0,60,0.00,,,0.00,Wunderground v.1.15,2013-02-03 20:35:00,
2013-02-03 10:40:00,73.5,59.7,30.15,East,91,6.0,6.0,62,0.00,,,0.00,Wunderground v.1.15,2013-02-03 20:40:00,
2013-02-03 10:50:00,73.4,60.0,30.15,NE,44,7.0,7.0,63,0.00,,,0.00,Wunderground v.1.15,2013-02-03 20:50:00,
2013-02-03 11:00:00,73.7,59.4,30.15,ENE,59,7.0,7.0,61,0.00,,,0.00,Wunderground v.1.15,2013-02-03 21:00:00,
2013-02-03 11:05:00,73.6,59.3,30.15,NNE,21,7.0,7.0,61,0.00,,,0.00,Wunderground v.1.15,2013-02-03 21:05:00,
2013-02-03 11:15:00,74.1,59.8,30.14,ENE,69,8.0,8.0,61,0.00,,,0.00,Wunderground v.1.15,2013-02-03 21:15:00,
2013-02-03 11:25:00,74.6,59.3,30.13,East,80,6.0,6.0,59,0.00,,,0.00,Wunderground v.1.15,2013-02-03 21:25:00,
2013-02-03 11:35:00,74.6,58.8,30.13,ENE,68,7.0,15.0,58,0.00,,,0.00,Wunderground v.1.15,2013-02-03 21:35:00,
2013-02-03 11:45:00,74.5,59.7,30.13,East,94,7.0,7.0,60,0.00,,,0.00,Wunderground v.1.15,2013-02-03 21:45:00,
2013-02-03 11:55:00,74.2,60.3,30.12,East,95,7.0,11.0,62,0.00,,,0.00,Wunderground v.1.15,2013-02-03 21:55:00,
2013-02-03 12:00:00,74.3,60.0,30.12,NNE,33,8.0,9.0,61,0.00,,,0.00,Wunderground v.1.15,2013-02-03 22:00:00,
2013-02-03 12:05:00,74.2,59.9,30.12,ENE,65,9.0,9.0,61,0.00,,,0.00,Wunderground v.1.15,2013-02-03 22:05:00,
2013-02-03 12:15:00,74.4,58.7,30.11,NNE,32,8.0,10.0,58,0.00,,,0.00,Wunderground v.1.15,2013-02-03 22:15:00,
2013-02-03 12:25:00,74.3,58.6,30.10,ENE,78,8.0,10.0,58,0.00,,,0.00,Wunderground v.1.15,2013-02-03 22:25:00,
2013-02-03 12:35:00,74.6,59.8,30.10,ESE,103,7.0,7.0,60,0.00,,,0.00,Wunderground v.1.15,2013-02-03 22:35:00,
2013-02-03 12:40:00,74.7,59.4,30.10,NE,36,8.0,8.0,59,0.00,,,0.00,Wunderground v.1.15,2013-02-03 22:40:00,
2013-02-03 12:50:00,74.4,60.1,30.09,ENE,71,8.0,8.0,61,0.00,,,0.00,Wunderground v.1.15,2013-02-03 22:50:00,
2013-02-03 13:00:00,74.4,59.1,30.08,NE,55,8.0,8.0,59,0.00,,,0.00,Wunderground v.1.15,2013-02-03 23:00:00,
2013-02-03 13:05:00,74.1,59.3,30.08,NE,42,8.0,11.0,60,0.00,,,0.00,Wunderground v.1.15,2013-02-03 23:05:00,
2013-02-03 13:15:00,74.4,59.1,30.08,ENE,71,8.0,9.0,59,0.00,,,0.00,Wunderground v.1.15,2013-02-03 23:15:00,
2013-02-03 13:20:00,74.7,58.9,30.08,NE,55,7.0,7.0,58,0.00,,,0.00,Wunderground v.1.15,2013-02-03 23:20:00,
2013-02-03 13:25:00,74.5,58.8,30.08,ENE,76,7.0,7.0,58,0.00,,,0.00,Wunderground v.1.15,2013-02-03 23:25:00,
2013-02-03 13:35:00,74.8,59.5,30.07,NE,55,7.0,13.0,59,0.00,,,0.00,Wunderground v.1.15,2013-02-03 23:35:00,
2013-02-03 13:45:00,74.5,58.8,30.07,ENE,63,8.0,8.0,58,0.00,,,0.00,Wunderground v.1.15,2013-02-03 23:45:00,
2013-02-03 13:50:00,74.5,59.2,30.06,NNE,14,8.0,8.0,59,0.00,,,0.00,Wunderground v.1.15,2013-02-03 23:50:00,
2013-02-03 14:00:00,74.8,59.0,30.06,ENE,64,7.0,9.0,58,0.00,,,0.00,Wunderground v.1.15,2013-02-04 00:00:00,
2013-02-03 14:05:00,74.7,59.4,30.06,East,82,7.0,9.0,59,0.00,,,0.00,Wunderground v.1.15,2013-02-04 00:05:00,
2013-02-03 14:15:00,74.5,60.6,30.06,ENE,71,8.0,10.0,62,0.00,,,0.00,Wunderground v.1.15,2013-02-04 00:15:00,
2013-02-03 14:25:00,74.2,60.8,30.06,ENE,62,7.0,9.0,63,0.00,,,0.00,Wunderground v.1.15,2013-02-04 00:25:00,
2013-02-03 14:35:00,74.4,61.4,30.06,East,96,7.0,9.0,64,0.00,,,0.00,Wunderground v.1.15,2013-02-04 00:35:00,
2013-02-03 14:40:00,74.4,60.5,30.06,ENE,62,6.0,6.0,62,0.00,,,0.00,Wunderground v.1.15,2013-02-04 00:40:00,
2013-02-03 14:50:00,74.1,60.7,30.06,ENE,57,7.0,10.0,63,0.00,,,0.00,Wunderground v.1.15,2013-02-04 00:50:00,
2013-02-03 15:00:00,74.0,59.7,30.06,NE,42,7.0,11.0,61,0.00,,,0.00,Wunderground v.1.15,2013-02-04 01:00:00,
2013-02-03 15:05:00,73.7,59.9,30.06,ENE,60,8.0,11.0,62,0.00,,,0.00,Wunderground v.1.15,2013-02-04 01:05:00,
2013-02-03 15:15:00,74.1,60.2,30.06,ENE,68,7.0,8.0,62,0.00,,,0.00,Wunderground v.1.15,2013-02-04 01:15:00,
2013-02-03 15:25:00,73.9,60.1,30.06,NE,56,7.0,10.0,62,0.00,,,0.00,Wunderground v.1.15,2013-02-04 01:25:00,
2013-02-03 15:35:00,74.2,59.9,30.06,East,81,7.0,10.0,61,0.00,,,0.00,Wunderground v.1.15,2013-02-04 01:35:00,
2013-02-03 15:40:00,74.0,60.2,30.06,East,90,7.0,7.0,62,0.00,,,0.00,Wunderground v.1.15,2013-02-04 01:40:00,
2013-02-03 15:50:00,73.8,60.0,30.06,NNE,33,7.0,14.0,62,0.00,,,0.00,Wunderground v.1.15,2013-02-04 01:50:00,
2013-02-03 15:55:00,73.7,58.9,30.07,East,82,8.0,14.0,60,0.00,,,0.00,Wunderground v.1.15,2013-02-04 01:55:00,
2013-02-03 16:05:00,73.7,60.3,30.07,NE,46,8.0,15.0,63,0.00,,,0.00,Wunderground v.1.15,2013-02-04 02:05:00,
2013-02-03 16:15:00,73.3,59.9,30.08,ENE,67,9.0,9.0,63,0.00,,,0.00,Wunderground v.1.15,2013-02-04 02:15:00,
2013-02-03 16:25:00,73.0,60.1,30.08,NE,44,8.0,8.0,64,0.00,,,0.00,Wunderground v.1.15,2013-02-04 02:25:00,
2013-02-03 16:35:00,72.5,59.2,30.08,ENE,63,7.0,7.0,63,0.00,,,0.00,Wunderground v.1.15,2013-02-04 02:35:00,
2013-02-03 16:45:00,72.3,59.4,30.08,NE,56,7.0,8.0,64,0.00,,,0.00,Wunderground v.1.15,2013-02-04 02:45:00,
2013-02-03 16:55:00,72.2,59.3,30.08,ENE,65,7.0,7.0,64,0.00,,,0.00,Wunderground v.1.15,2013-02-04 02:55:00,
2013-02-03 17:05:00,72.3,59.9,30.08,ENE,57,8.0,8.0,65,0.00,,,0.00,Wunderground v.1.15,2013-02-04 03:05:00,
2013-02-03 17:15:00,72.0,59.6,30.09,NE,40,8.0,14.0,65,0.00,,,0.00,Wunderground v.1.15,2013-02-04 03:15:00,
2013-02-03 17:20:00,71.8,59.4,30.08,East,83,8.0,8.0,65,0.00,,,0.00,Wunderground v.1.15,2013-02-04 03:20:00,
2013-02-03 17:30:00,71.7,59.3,30.08,ENE,70,6.0,6.0,65,0.00,,,0.00,Wunderground v.1.15,2013-02-04 03:30:00,
2013-02-03 17:40:00,71.6,59.2,30.08,NE,56,7.0,7.0,65,0.00,,,0.00,Wunderground v.1.15,2013-02-04 03:40:00,
2013-02-03 17:45:00,71.5,59.1,30.08,NNE,17,7.0,9.0,65,0.00,,,0.00,Wunderground v.1.15,2013-02-04 03:45:00,
2013-02-03 17:55:00,71.3,58.9,30.08,NE,36,6.0,10.0,65,0.00,,,0.00,Wunderground v.1.15,2013-02-04 03:55:00,
2013-02-03 18:05:00,70.9,58.5,30.08,East,83,7.0,7.0,65,0.00,,,0.00,Wunderground v.1.15,2013-02-04 04:05:00,
2013-02-03 18:15:00,70.6,59.1,30.08,ENE,73,6.0,16.0,67,0.00,,,0.00,Wunderground v.1.15,2013-02-04 04:15:00,
2013-02-03 18:25:00,70.4,59.3,30.08,ENE,64,6.0,10.0,68,0.00,,,0.00,Wunderground v.1.15,2013-02-04 04:25:00,
2013-02-03 18:35:00,70.2,59.6,30.09,NE,48,6.0,6.0,69,0.00,,,0.00,Wunderground v.1.15,2013-02-04 04:35:00,
2013-02-03 18:40:00,70.3,59.2,30.09,NE,53,6.0,6.0,68,0.00,,,0.00,Wunderground v.1.15,2013-02-04 04:40:00,
2013-02-03 18:50:00,70.3,58.8,30.09,NE,36,6.0,11.0,67,0.00,,,0.00,Wunderground v.1.15,2013-02-04 04:50:00,
2013-02-03 19:00:00,70.6,59.9,30.09,NE,34,6.0,12.0,69,0.00,,,0.00,Wunderground v.1.15,2013-02-04 05:00:00,
2013-02-03 19:05:00,70.7,59.6,30.10,NNE,28,7.0,16.0,68,0.00,,,0.00,Wunderground v.1.15,2013-02-04 05:05:00,
2013-02-03 19:15:00,70.8,59.3,30.10,NE,34,8.0,11.0,67,0.00,,,0.00,Wunderground v.1.15,2013-02-04 05:15:00,
2013-02-03 19:25:00,70.8,59.3,30.10,ENE,67,8.0,16.0,67,0.00,,,0.00,Wunderground v.1.15,2013-02-04 05:25:00,
2013-02-03 19:35:00,70.8,59.7,30.10,NE,43,9.0,19.0,68,0.00,,,0.00,Wunderground v.1.15,2013-02-04 05:35:00,
2013-02-03 19:40:00,70.9,59.4,30.11,NE,38,10.0,10.0,67,0.00,,,0.00,Wunderground v.1.15,2013-02-04 05:40:00,
2013-02-03 19:45:00,71.0,59.9,30.10,NE,44,11.0,11.0,68,0.00,,,0.00,Wunderground v.1.15,2013-02-04 05:45:00,
2013-02-03 19:55:00,71.0,59.5,30.10,ENE,57,9.0,10.0,67,0.00,,,0.00,Wunderground v.1.15,2013-02-04 05:55:00,
2013-02-03 20:05:00,70.9,59.4,30.11,NNE,28,10.0,16.0,67,0.00,,,0.00,Wunderground v.1.15,2013-02-04 06:05:00,
2013-02-03 20:15:00,70.9,59.4,30.11,NE,43,11.0,11.0,67,0.00,,,0.00,Wunderground v.1.15,2013-02-04 06:15:00,
2013-02-03 20:20:00,70.9,59.0,30.11,ENE,69,11.0,11.0,66,0.00,,,0.00,Wunderground v.1.15,2013-02-04 06:20:00,
2013-02-03 20:25:00,70.9,59.4,30.12,NE,39,10.0,11.0,67,0.00,,,0.00,Wunderground v.1.15,2013-02-04 06:25:00,
2013-02-03 20:35:00,70.8,59.3,30.12,NE,49,10.0,10.0,67,0.00,,,0.00,Wunderground v.1.15,2013-02-04 06:35:00,
2013-02-03 20:45:00,70.6,58.3,30.12,East,95,7.0,8.0,65,0.00,,,0.00,Wunderground v.1.15,2013-02-04 06:45:00,
2013-02-03 20:55:00,70.6,58.7,30.11,NNE,12,9.0,13.0,66,0.00,,,0.00,Wunderground v.1.15,2013-02-04 06:55:00,
2013-02-03 21:00:00,70.5,58.6,30.11,NE,37,9.0,13.0,66,0.00,,,0.00,Wunderground v.1.15,2013-02-04 07:00:00,
2013-02-03 21:05:00,70.3,57.5,30.11,NE,48,9.0,20.0,64,0.00,,,0.00,Wunderground v.1.15,2013-02-04 07:05:00,
2013-02-03 21:15:00,70.2,57.0,30.11,ENE,66,9.0,9.0,63,0.00,,,0.00,Wunderground v.1.15,2013-02-04 07:15:00,
2013-02-03 21:25:00,70.4,57.6,30.10,NNE,25,9.0,9.0,64,0.00,,,0.00,Wunderground v.1.15,2013-02-04 07:25:00,
2013-02-03 21:35:00,70.4,56.3,30.10,ENE,61,10.0,11.0,61,0.00,,,0.00,Wunderground v.1.15,2013-02-04 07:35:00,
2013-02-03 21:40:00,70.4,56.8,30.10,ENE,59,8.0,10.0,62,0.00,,,0.00,Wunderground v.1.15,2013-02-04 07:40:00,
2013-02-03 21:45:00,70.4,57.2,30.10,NE,56,7.0,10.0,63,0.00,,,0.00,Wunderground v.1.15,2013-02-04 07:45:00,
2013-02-03 21:55:00,70.5,58.2,30.10,ESE,109,9.0,13.0,65,0.00,,,0.00,Wunderground v.1.15,2013-02-04 07:55:00,
2013-02-03 22:00:00,70.5,59.0,30.10,ENE,69,9.0,9.0,67,0.00,,,0.00,Wunderground v.1.15,2013-02-04 08:00:00,
2013-02-03 22:05:00,70.4,59.3,30.10,ENE,69,9.0,9.0,68,0.00,,,0.00,Wunderground v.1.15,2013-02-04 08:05:00,
2013-02-03 22:15:00,70.4,58.1,30.09,ENE,76,10.0,11.0,65,0.00,,,0.00,Wunderground v.1.15,2013-02-04 08:15:00,
2013-02-03 22:25:00,70.3,57.5,30.08,ESE,111,8.0,15.0,64,0.00,,,0.00,Wunderground v.1.15,2013-02-04 08:25:00,
2013-02-03 22:35:00,70.2,57.9,30.08,NNE,32,9.0,13.0,65,0.00,,,0.00,Wunderground v.1.15,2013-02-04 08:35:00,
2013-02-03 22:45:00,70.3,59.6,30.08,East,82,9.0,11.0,69,0.00,,,0.00,Wunderground v.1.15,2013-02-04 08:45:00,
2013-02-03 22:55:00,70.3,58.4,30.09,ENE,76,8.0,10.0,66,0.00,,,0.00,Wunderground v.1.15,2013-02-04 08:55:00,
2013-02-03 23:00:00,70.2,57.9,30.09,East,79,8.0,10.0,65,0.00,,,0.00,Wunderground v.1.15,2013-02-04 09:00:00,
2013-02-03 23:05:00,70.3,57.5,30.09,East,90,8.0,10.0,64,0.00,,,0.00,Wunderground v.1.15,2013-02-04 09:05:00,
2013-02-03 23:15:00,70.1,56.9,30.09,East,80,9.0,17.0,63,0.00,,,0.00,Wunderground v.1.15,2013-02-04 09:15:00,
2013-02-03 23:20:00,70.1,56.9,30.10,ENE,72,8.0,14.0,63,0.00,,,0.00,Wunderground v.1.15,2013-02-04 09:20:00,
2013-02-03 23:30:00,69.9,56.7,30.09,ENE,76,7.0,14.0,63,0.00,,,0.00,Wunderground v.1.15,2013-02-04 09:30:00,
2013-02-03 23:40:00,70.2,57.0,30.09,ENE,63,8.0,8.0,63,0.00,,,0.00,Wunderground v.1.15,2013-02-04 09:40:00,
2013-02-03 23:45:00,70.2,57.4,30.08,ENE,57,8.0,8.0,64,0.00,,,0.00,Wunderground v.1.15,2013-02-04 09:45:00,
2013-02-03 23:50:00,70.2,57.9,30.08,NE,55,7.0,7.0,65,0.00,,,0.00,Wunderground v.1.15,2013-02-04 09:50:00,